Regional Weather Roundup
Issued by NWS

Home | Current Version | Previous Version | Text Only | Print | Product List | Glossary Off
Versions: 1 2 3 4 5 6 7 8 9 10 11 12 13 14 15 16 17 18 19 20 21 22 23 24 25 26 27 28 29 30 31 32 33 34 35 36 37 38 39 40 41 42 43 44 45 46 47 48 49 50

000
ASUS43 KMPX 261101
RWRMN
WEATHER ROUNDUP FOR MINNESOTA
NATIONAL WEATHER SERVICE TWIN CITIES/CHANHASSEN MN
500 AM CST SUN FEB 26 2017


NOTE: "FAIR" INDICATES FEW OR NO CLOUDS BELOW 12,000 FEET WITH NO
SIGNIFICANT WEATHER AND/OR OBSTRUCTIONS TO VISIBILITY. N/A MEANS
CURRENT SKY AND/OR WEATHER CONDITIONS ARE NOT AVAILABLE.

MNZ060>063-068>070-261200-
   Twin Cities Metro

CITY           SKY/WX    TMP DP  RH WIND       PRES   REMARKS
TWIN CITIES    CLOUDY    25  16  68 SW10      29.74F WCI  15
ST PAUL        MOCLDY    25  18  74 S6        29.75F WCI  18
CRYSTAL        CLEAR     23  15  71 SW6       29.72F WCI  16
BLAINE         PTCLDY    25  19  80 S8        29.72S WCI  16
LAKEVILLE      PTCLDY    21  19  93 SW5       29.74S WCI  15
EDEN PRAIRIE   PTCLDY    23  16  74 SW10      29.73S WCI  12
SOUTH ST PAUL  MOCLDY    26  19  73 SW5       29.74F WCI  20
LAKE ELMO      CLOUDY    27  21  80 S7        29.74F WCI  19
$$
MNZ001>005-007-008-013>017-022>024-027-028-261200-
   Northwest Minnesota

CITY           SKY/WX    TMP DP  RH WIND       PRES   REMARKS
BEMIDJI        LGT SNOW  13  10  87 N8        29.66R WCI   1
HALLOCK        CLEAR      5   1  85 CALM      29.76R
ROSEAU         CLEAR      9   1  72 NW3       29.73R
WARROAD        CLEAR      5   0  78 W3        29.72S
THIEF RVR FALL   N/A    N/A N/A N/A MISG        N/A
CROOKSTON      CLOUDY    12   7  79 N10       29.76R WCI  -1
FOSSTON        LGT SNOW  10   9  92 N12       29.69S WCI  -4
DETROIT LAKES  FLURRIES  21  19  93 N15       29.65R WCI   8
MOORHEAD       MIX PCPN  16  12  86 N17       29.73R WCI   0
PARK RAPIDS    LGT SNOW  23  19  85 SW5       29.62S FOG     WCI  17
MAHNOMEN       LGT SNOW  14  11  88 N14       29.68R WCI  -1
$$
MNZ006-009>011-018-025>026-261200-
   North Central Minnesota

CITY           SKY/WX    TMP DP  RH WIND       PRES   REMARKS
BAUDETTE       CLOUDY     8   0  69 NW9       29.69S WCI  -5
FLAG ISLAND    CLEAR      5   0  78 W7        29.70R WCI  -7
INTL FALLS     LGT SNOW  11   6  81 NW5       29.66S WCI   3
WASKISH        LGT SNOW  10   9  92 NW5       29.69R WCI   2
BIG FORK       LGT SNOW  14  10  85 NW5       29.65R WCI   6
LONGVILLE      CLOUDY    25  21  86 W3        29.63S
GRAND RAPIDS   CLOUDY    21  18  88 CALM      29.64S
CRANE LAKE     LGT SNOW  12  10  92 CALM      29.67S
ORR            LGT SNOW  12   9  85 CALM      29.62S
COOK           LGT SNOW  14  12  92 CALM      29.64S
WALKER         LGT SNOW  18  15  88 N5        29.63R WCI  11
$$
MNZ012-019>021-037-261200-
   Northeast Minnesota

CITY           SKY/WX    TMP DP  RH WIND       PRES   REMARKS
DULUTH         CLOUDY    25  22  88 SW8       29.62S WCI  16
ELY            CLOUDY    16  14  93 CALM      29.61F
HIBBING        CLOUDY    19  17  92 CALM      29.62S
EVELETH        CLOUDY    20  16  85 CALM      29.63F
DULUTH HARBOR  CLOUDY    27  25  93 CALM      29.68S
TWO HARBORS    CLOUDY    27  21  80 CALM      29.61F
SILVER BAY     CLOUDY    18  18 100 CALM      29.61F
GRAND MARAIS     N/A     25  16  68 VRB3      29.65F
G MARAIS ARPRT CLOUDY    16  10  79 CALM      29.58F
$$
MNZ029>031-032-039>041-046>048-054>057-064-261200-
   West Central Minnesota

CITY           SKY/WX    TMP DP  RH WIND       PRES   REMARKS
FERGUS FALLS   LGT SNOW  23  23 100 SW7       29.70F WCI  15
WHEATON        MOCLDY    23  21  93 SW6       29.71S WCI  16
MORRIS         CLOUDY    25  25 100 SW5       29.68F FOG     WCI  19
ALEXANDRIA     LGT SNOW  25  23  92 SW8       29.66F FOG     WCI  16
ELBOW LAKE     LGT SNOW  24  23  99 W5        29.67S WCI  18
WADENA         LGT SNOW  19  18  93 CALM      29.63F
GLENWOOD       MOCLDY    25  25 100 SW9       29.68R WCI  15
APPLETON       CLOUDY    27  23  86 SW5       29.71R WCI  21
BENSON         CLOUDY    27  21  80 W7        29.72S WCI  19
ORTONVILLE       N/A     25  21  86 CALM      29.70S
MADISON        CLOUDY    28  25  86 W12       29.71F WCI  18
WILLMAR        MOCLDY    27  25  93 SW8       29.72S WCI  18
$$
MNZ033>034-036-042>043-049>051-058-059-261200-
   Central Minnesota

CITY           SKY/WX    TMP DP  RH WIND       PRES   REMARKS
ST CLOUD       CLOUDY    25  21  85 SW10      29.69S WCI  15
SAUK CENTRE    PTSUNNY   25  23  91 SW8       29.67F WCI  16
PAYNESVILLE    CLOUDY    25  22  91 SW6       29.70S WCI  18
AITKIN         CLOUDY    27  21  80 CALM      29.63S
PINE RIVER     CLOUDY    23  23 100 CALM      29.67S
BRAINERD       CLOUDY    20  19  96 W6        29.64F FOG     WCI  12
STAPLES        FOG       19  19 100 CALM      29.65S VSB 1
LONG PRAIRIE   CLOUDY    27  23  86 S6        29.66S WCI  20
LITTLE FALLS   CLOUDY    27  21  80 SW3       29.67S
LITCHFIELD     CLEAR     25  21  86 CALM      29.71S
BUFFALO        CLOUDY    23  19  84 S3        29.72S
MAPLE LAKE     CLOUDY    24  22  90 S3        29.72S
HUTCHINSON     CLEAR     24  22  91 SW5       29.73R WCI  18
$$
MNZ037-044-045-052-053-261200-
   East Central Minnesota

CITY           SKY/WX    TMP DP  RH WIND       PRES   REMARKS
PRINCETON      CLOUDY    27  21  80 S8        29.69F WCI  18
MORA           CLOUDY    27  23  86 SW7       29.69F WCI  19
CAMBRIDGE      CLOUDY    27  18  69 S7        29.69S WCI  19
RUSH CITY      CLOUDY    25  19  80 S7        29.70F WCI  17
MOOSE LAKE     CLOUDY    27  21  80 SW7       29.64S WCI  19
HINCKLEY       CLOUDY    27  23  86 S9        29.68F WCI  17
CLOQUET        CLOUDY    25  21  86 SW5       29.63S WCI  19
MCGREGOR       CLOUDY    27  25  93 CALM      29.64S
$$
MNZ071>073-080-081-089-090-097-098-261200-
   Southwest Minnesota

CITY           SKY/WX    TMP DP  RH WIND       PRES   REMARKS
MONTEVIDEO     MOCLDY    25  21  86 W3        29.72F
GRANITE FALLS  CLOUDY    26  23  89 SW6       29.74S WCI  20
CANBY          PTCLDY    27  23  87 CALM      29.72R
MARSHALL       MOCLDY    24  20  84 SW10      29.72  WCI  14
REDWOOD FALLS  PTCLDY    23  18  81 SW6       29.72S WCI  16
OLIVIA         CLEAR     23  21  93 SW5       29.71S WCI  17
PIPESTONE      CLOUDY    21  16  79 SW6       29.72S WCI  14
WINDOM         CLEAR     19  18  93 SW9       29.74R WCI   9
WORTHINGTON    CLEAR     19  16  88 SW9       29.74S WCI   8
JACKSON        PTCLDY    21  18  86 SW9       29.75S WCI  11
TRACY          MOCLDY    24  20  87 SW13      29.72S WCI  12
SLAYTON        CLEAR     20  17  90 SW12      29.73S WCI   8
$$
MNZ065>067-074>077-082>085-091>093-261200-
   South Central Minnesota

CITY           SKY/WX    TMP DP  RH WIND       PRES   REMARKS
MANKATO          N/A     21  16  81 S10       29.75  WCI  10
NEW ULM        CLEAR     21  18  86 SW7       29.74S WCI  13
ST JAMES       CLEAR     19  18  93 CALM      29.76S
FAIRMONT       PTCLDY    21  16  81 SW16      29.76S WCI   7
GLENCOE        PTCLDY    24  22  94 SW3       29.73R
FARIBAULT      PTCLDY    23  18  80 S8        29.75S WCI  14
OWATONNA       PTCLDY    21  16  79 S12       29.75S WCI   9
WASECA         CLEAR     19  16  86 SW10      29.77S WCI   8
ALBERT LEA     CLEAR     25  18  74 SW9       29.75F WCI  15
$$
MNZ078>079-086>088-094>096-261200-
   Southeast Minnesota

CITY           SKY/WX    TMP DP  RH WIND       PRES   REMARKS
ROCHESTER      CLEAR     22  16  78 S16       29.74F WCI   8
RED WING       CLOUDY    27  16  63 SW6       29.76S WCI  20
STANTON        PTCLDY    19  14  83 SW7       29.74S WCI   9
WINONA         CLEAR     30  21  69 SW6       29.80F WCI  24
AUSTIN         CLEAR     19  14  79 S8        29.76F WCI   9
PRESTON        CLEAR     23  17  75 S10       29.77F WCI  13
$$
ABBREVIATIONS USED IN REMARKS
   TC - TEMPERATURES IN CELSIUS
  WCI - WIND CHILL INDEX
   HX - HEAT INDEX
  VSB - VISIBILITY
$$




USA.gov is the U.S. government's official web portal to all federal, state and local government web resources and services.